Location: Laterina
(43.5167°N, 11.7167°E)
Time: 15:27:36
(UTC+00:00)

ISS - Pass Details

Date: 24 September 2020
Orbit: 417 x 420 km, 51.6° (Epoch: 26 October)

Event Time Altitude Azimuth Distance (km) Brightness Sun altitude
Rises 16:34:39 0° 238° (WSW) 2,355 1.4 4.9°
Reaches altitude 10° 16:36:44 10° 239° (WSW) 1,495 0.4 4.5°
Maximum altitude 16:40:05 83° 326° (NW) 427 -3.6 3.9°
Drops below altitude 10° 16:43:28 10° 57° (ENE) 1,504 -1.5 3.3°
Enters shadow 16:47:03 -5° 58° (ENE) 2,979 0.0 2.7°
Exits shadow 17:21:54 -77° 75° (ENE) 12,855 3.6 -3.7°
